Year,Month,Day,Hour,Minute,Value (Times are PST for temperature in C)
2019,10,30,00,00,-0.40
2019,10,30,00,01,-0.40
2019,10,30,00,02,-0.40
2019,10,30,00,03,-0.40
2019,10,30,00,04,-0.40
2019,10,30,00,05,-0.50
2019,10,30,00,06,-0.50
2019,10,30,00,07,-0.50
2019,10,30,00,08,-0.50
2019,10,30,00,09,-0.50
2019,10,30,00,10,-0.50
2019,10,30,00,11,-0.50
2019,10,30,00,12,-0.50
2019,10,30,00,13,-0.50
2019,10,30,00,14,-0.50
2019,10,30,00,15,-0.50
2019,10,30,00,16,-0.60
2019,10,30,00,17,-0.60
2019,10,30,00,18,-0.60
2019,10,30,00,19,-0.60
2019,10,30,00,20,-0.60
2019,10,30,00,21,-0.60
2019,10,30,00,22,-0.60
2019,10,30,00,23,-0.60
2019,10,30,00,24,-0.60
2019,10,30,00,25,-0.70
2019,10,30,00,26,-0.70
2019,10,30,00,27,-0.70
2019,10,30,00,28,-0.70
2019,10,30,00,29,-0.70
2019,10,30,00,30,-0.70
2019,10,30,00,31,-0.70
2019,10,30,00,32,-0.80
2019,10,30,00,33,-0.80
2019,10,30,00,34,-0.80
2019,10,30,00,35,-0.80
2019,10,30,00,36,-0.80
2019,10,30,00,37,-0.80
2019,10,30,00,38,-0.80
2019,10,30,00,39,-0.80
2019,10,30,00,40,-0.80
2019,10,30,00,41,-0.80
2019,10,30,00,42,-0.80
2019,10,30,00,43,-0.80
2019,10,30,00,44,-0.70
2019,10,30,00,45,-0.70
2019,10,30,00,46,-0.70
2019,10,30,00,47,-0.70
2019,10,30,00,48,-0.70
2019,10,30,00,49,-0.70
2019,10,30,00,50,-0.70
2019,10,30,00,51,-0.70
2019,10,30,00,52,-0.70
2019,10,30,00,53,-0.70
2019,10,30,00,54,-0.70
2019,10,30,00,55,-0.80
2019,10,30,00,56,-0.80
2019,10,30,00,57,-0.70
2019,10,30,00,58,-0.70
2019,10,30,00,59,-0.70
2019,10,30,01,00,-0.70
2019,10,30,01,01,-0.70
2019,10,30,01,02,-0.70
2019,10,30,01,03,-0.70
2019,10,30,01,04,-0.70
2019,10,30,01,05,-0.70
2019,10,30,01,06,-0.70
2019,10,30,01,07,-0.70
2019,10,30,01,08,-0.60
2019,10,30,01,09,-0.60
2019,10,30,01,10,-0.60
2019,10,30,01,11,-0.60
2019,10,30,01,12,-0.70
2019,10,30,01,13,-0.70
2019,10,30,01,14,-0.70
2019,10,30,01,15,-0.70
2019,10,30,01,16,-0.70
2019,10,30,01,17,-0.70
2019,10,30,01,18,-0.70
2019,10,30,01,19,-0.70
2019,10,30,01,20,-0.70
2019,10,30,01,21,-0.70
2019,10,30,01,22,-0.70
2019,10,30,01,23,-0.70
2019,10,30,01,24,-0.70
2019,10,30,01,25,-0.60
2019,10,30,01,26,-0.60
2019,10,30,01,27,-0.60
2019,10,30,01,28,-0.60
2019,10,30,01,29,-0.70
2019,10,30,01,30,-0.70
2019,10,30,01,31,-0.70
2019,10,30,01,32,-0.70
2019,10,30,01,33,-0.70
2019,10,30,01,34,-0.70
2019,10,30,01,35,-0.70
2019,10,30,01,36,-0.70
2019,10,30,01,37,-0.70
2019,10,30,01,38,-0.70
2019,10,30,01,39,-0.70
2019,10,30,01,40,-0.80
2019,10,30,01,41,-0.80
2019,10,30,01,42,-0.80
2019,10,30,01,43,-0.80
2019,10,30,01,44,-0.80
2019,10,30,01,45,-0.90
2019,10,30,01,46,-0.90
2019,10,30,01,47,-0.90
2019,10,30,01,48,-0.90
2019,10,30,01,49,-0.90
2019,10,30,01,50,-0.90
2019,10,30,01,51,-0.90
2019,10,30,01,52,-0.90
2019,10,30,01,53,-0.90
2019,10,30,01,54,-0.90
2019,10,30,01,55,-1.00
2019,10,30,01,56,-1.00
2019,10,30,01,57,-1.00
2019,10,30,01,58,-1.00
2019,10,30,01,59,-1.00
2019,10,30,02,00,-1.10
2019,10,30,02,01,-1.10
2019,10,30,02,02,-1.10
2019,10,30,02,03,-1.10
2019,10,30,02,04,-1.10
2019,10,30,02,05,-1.10
2019,10,30,02,06,-1.10
2019,10,30,02,07,-1.10
2019,10,30,02,08,-1.10
2019,10,30,02,09,-1.10
2019,10,30,02,10,-1.10
2019,10,30,02,11,-1.10
2019,10,30,02,12,-1.10
2019,10,30,02,13,-1.10
2019,10,30,02,14,-1.10
2019,10,30,02,15,-1.10
2019,10,30,02,16,-1.10
2019,10,30,02,17,-1.10
2019,10,30,02,18,-1.10
2019,10,30,02,19,-1.10
2019,10,30,02,20,-1.10
2019,10,30,02,21,-1.10
2019,10,30,02,22,-1.10
2019,10,30,02,23,-1.10
2019,10,30,02,24,-1.00
2019,10,30,02,25,-1.10
2019,10,30,02,26,-1.00
2019,10,30,02,27,-1.10
2019,10,30,02,28,-1.10
2019,10,30,02,29,-1.10
2019,10,30,02,30,-1.10
2019,10,30,02,31,-1.10
2019,10,30,02,32,-1.10
2019,10,30,02,33,-1.10
2019,10,30,02,34,-1.10
2019,10,30,02,35,-1.10
2019,10,30,02,36,-1.10
2019,10,30,02,37,-1.10
2019,10,30,02,38,-1.10
2019,10,30,02,39,-1.10
2019,10,30,02,40,-1.10
2019,10,30,02,41,-1.10
2019,10,30,02,42,-1.10
2019,10,30,02,43,-1.10
2019,10,30,02,44,-1.10
2019,10,30,02,45,-1.00
2019,10,30,02,46,-1.10
2019,10,30,02,47,-1.00
2019,10,30,02,48,-1.10
2019,10,30,02,49,-1.10
2019,10,30,02,50,-1.10
2019,10,30,02,51,-1.10
2019,10,30,02,52,-1.10
2019,10,30,02,53,-1.10
2019,10,30,02,54,-1.10
2019,10,30,02,55,-1.10
2019,10,30,02,56,-1.10
2019,10,30,02,57,-1.10
2019,10,30,02,58,-1.10
2019,10,30,02,59,-1.10
2019,10,30,03,00,-1.10
2019,10,30,03,01,-1.10
2019,10,30,03,02,-1.10
2019,10,30,03,03,-1.10
2019,10,30,03,04,-1.10
2019,10,30,03,05,-1.10
2019,10,30,03,06,-1.10
2019,10,30,03,07,-1.10
2019,10,30,03,08,-1.10
2019,10,30,03,09,-1.10
2019,10,30,03,10,-1.10
2019,10,30,03,11,-1.10
2019,10,30,03,12,-1.00
2019,10,30,03,13,-1.00
2019,10,30,03,14,-1.00
2019,10,30,03,15,-1.00
2019,10,30,03,16,-1.00
2019,10,30,03,17,-1.00
2019,10,30,03,18,-1.00
2019,10,30,03,19,-1.00
2019,10,30,03,20,-0.90
2019,10,30,03,21,-0.90
2019,10,30,03,22,-0.90
2019,10,30,03,23,-0.90
2019,10,30,03,24,-0.90
2019,10,30,03,25,-0.90
2019,10,30,03,26,-0.90
2019,10,30,03,27,-0.90
2019,10,30,03,28,-0.90
2019,10,30,03,29,-0.90
2019,10,30,03,30,-0.90
2019,10,30,03,31,-0.90
2019,10,30,03,32,-0.90
2019,10,30,03,33,-0.90
2019,10,30,03,34,-0.90
2019,10,30,03,35,-0.90
2019,10,30,03,36,-0.90
2019,10,30,03,37,-0.90
2019,10,30,03,38,-0.90
2019,10,30,03,39,-0.90
2019,10,30,03,40,-0.90
2019,10,30,03,41,-0.90
2019,10,30,03,42,-0.90
2019,10,30,03,43,-0.90
2019,10,30,03,44,-0.90
2019,10,30,03,45,-0.80
2019,10,30,03,46,-0.90
2019,10,30,03,47,-0.80
2019,10,30,03,48,-0.90
2019,10,30,03,49,-0.90
2019,10,30,03,50,-0.90
2019,10,30,03,51,-0.90
2019,10,30,03,52,-1.00
2019,10,30,03,53,-1.00
2019,10,30,03,54,-1.10
2019,10,30,03,55,-1.10
2019,10,30,03,56,-1.10
2019,10,30,03,57,-1.10
2019,10,30,03,58,-1.10
2019,10,30,03,59,-1.10
2019,10,30,04,00,-1.10
2019,10,30,04,01,-1.10
2019,10,30,04,02,-1.10
2019,10,30,04,03,-1.00
2019,10,30,04,04,-1.00
2019,10,30,04,05,-1.00
2019,10,30,04,06,-1.00
2019,10,30,04,07,-1.00
2019,10,30,04,08,-1.00
2019,10,30,04,09,-1.00
2019,10,30,04,10,-1.00
2019,10,30,04,11,-1.10
2019,10,30,04,12,-1.10
2019,10,30,04,13,-1.10
2019,10,30,04,14,-1.10
2019,10,30,04,15,-1.10
2019,10,30,04,16,-1.10
2019,10,30,04,17,-1.10
2019,10,30,04,18,-1.10
2019,10,30,04,19,-1.10
2019,10,30,04,20,-1.20
2019,10,30,04,21,-1.20
2019,10,30,04,22,-1.20
2019,10,30,04,23,-1.20
2019,10,30,04,24,-1.20
2019,10,30,04,25,-1.20
2019,10,30,04,26,-1.20
2019,10,30,04,27,-1.20
2019,10,30,04,28,-1.30
2019,10,30,04,29,-1.30
2019,10,30,04,30,-1.30
2019,10,30,04,31,-1.30
2019,10,30,04,32,-1.30
2019,10,30,04,33,-1.30
2019,10,30,04,34,-1.30
2019,10,30,04,35,-1.30
2019,10,30,04,36,-1.20
2019,10,30,04,37,-1.20
2019,10,30,04,38,-1.20
2019,10,30,04,39,-1.20
2019,10,30,04,40,-1.20
2019,10,30,04,41,-1.10
2019,10,30,04,42,-1.10
2019,10,30,04,43,-1.10
2019,10,30,04,44,-1.10
2019,10,30,04,45,-1.10
2019,10,30,04,46,-1.00
2019,10,30,04,47,-1.00
2019,10,30,04,48,-1.00
2019,10,30,04,49,-0.90
2019,10,30,04,50,-0.90
2019,10,30,04,51,-0.90
2019,10,30,04,52,-0.90
2019,10,30,04,53,-0.90
2019,10,30,04,54,-1.00
2019,10,30,04,55,-1.00
2019,10,30,04,56,-1.00
2019,10,30,04,57,-1.00
2019,10,30,04,58,-1.00
2019,10,30,04,59,-1.00
2019,10,30,05,00,-1.00
2019,10,30,05,01,-1.10
2019,10,30,05,02,-1.10
2019,10,30,05,03,-1.10
2019,10,30,05,04,-1.10
2019,10,30,05,05,-1.10
2019,10,30,05,06,-1.10
2019,10,30,05,07,-1.10
2019,10,30,05,08,-1.10
2019,10,30,05,09,-1.10
2019,10,30,05,10,-1.10
2019,10,30,05,11,-1.10
2019,10,30,05,12,-1.20
2019,10,30,05,13,-1.20
2019,10,30,05,14,-1.20
2019,10,30,05,15,-1.20
2019,10,30,05,16,-1.20
2019,10,30,05,17,-1.20
2019,10,30,05,18,-1.20
2019,10,30,05,19,-1.20
2019,10,30,05,20,-1.20
2019,10,30,05,21,-1.20
2019,10,30,05,22,-1.20
2019,10,30,05,23,-1.20
2019,10,30,05,24,-1.20
2019,10,30,05,25,-1.20
2019,10,30,05,26,-1.20
2019,10,30,05,27,-1.20
2019,10,30,05,28,-1.20
2019,10,30,05,29,-1.20
2019,10,30,05,30,-1.20
2019,10,30,05,31,-1.20
2019,10,30,05,32,-1.20
2019,10,30,05,33,-1.10
2019,10,30,05,34,-1.10
2019,10,30,05,35,-1.10
2019,10,30,05,36,-1.10
2019,10,30,05,37,-1.10
2019,10,30,05,38,-1.10
2019,10,30,05,39,-1.10
2019,10,30,05,40,-1.10
2019,10,30,05,41,-1.10
2019,10,30,05,42,-1.10
2019,10,30,05,43,-1.20
2019,10,30,05,44,-1.20
2019,10,30,05,45,-1.20
2019,10,30,05,46,-1.20
2019,10,30,05,47,-1.20
2019,10,30,05,48,-1.20
2019,10,30,05,49,-1.20
2019,10,30,05,50,-1.20
2019,10,30,05,51,-1.20
2019,10,30,05,52,-1.20
2019,10,30,05,53,-1.20
2019,10,30,05,54,-1.20
2019,10,30,05,55,-1.20
2019,10,30,05,56,-1.10
2019,10,30,05,57,-1.10
2019,10,30,05,58,-1.20
2019,10,30,05,59,-1.10
2019,10,30,06,00,-1.20
2019,10,30,06,01,-1.20
2019,10,30,06,02,-1.20
2019,10,30,06,03,-1.20
2019,10,30,06,04,-1.10
2019,10,30,06,05,-1.10
2019,10,30,06,06,-1.10
2019,10,30,06,07,-1.10
2019,10,30,06,08,-1.10
2019,10,30,06,09,-1.10
2019,10,30,06,10,-1.10
2019,10,30,06,11,-1.10
2019,10,30,06,12,-1.10
2019,10,30,06,13,-1.10
2019,10,30,06,14,-1.20
2019,10,30,06,15,-1.20
2019,10,30,06,16,-1.20
2019,10,30,06,17,-1.20
2019,10,30,06,18,-1.20
2019,10,30,06,19,-1.20
2019,10,30,06,20,-1.20
2019,10,30,06,21,-1.20
2019,10,30,06,22,-1.20
2019,10,30,06,23,-1.20
2019,10,30,06,24,-1.20
2019,10,30,06,25,-1.20
2019,10,30,06,26,-1.20
2019,10,30,06,27,-1.20
2019,10,30,06,28,-1.20
2019,10,30,06,29,-1.20
2019,10,30,06,30,-1.20
2019,10,30,06,31,-1.30
2019,10,30,06,32,-1.30
2019,10,30,06,33,-1.30
2019,10,30,06,34,-1.30
2019,10,30,06,35,-1.30
2019,10,30,06,36,-1.30
2019,10,30,06,37,-1.30
2019,10,30,06,38,-1.30
2019,10,30,06,39,-1.30
2019,10,30,06,40,-1.30
2019,10,30,06,41,-1.30
2019,10,30,06,42,-1.30
2019,10,30,06,43,-1.30
2019,10,30,06,44,-1.30
2019,10,30,06,45,-1.20
2019,10,30,06,46,-1.20
2019,10,30,06,47,-1.20
2019,10,30,06,48,-1.20
2019,10,30,06,49,-1.20
2019,10,30,06,50,-1.20
2019,10,30,06,51,-1.20
2019,10,30,06,52,-1.20
2019,10,30,06,53,-1.20
2019,10,30,06,54,-1.20
2019,10,30,06,55,-1.20
2019,10,30,06,56,-1.20
2019,10,30,06,57,-1.10
2019,10,30,06,58,-1.10
2019,10,30,06,59,-1.10
2019,10,30,07,00,-1.10
2019,10,30,07,01,-1.10
2019,10,30,07,02,-1.10
2019,10,30,07,03,-1.10
2019,10,30,07,04,-1.10
2019,10,30,07,05,-1.10
2019,10,30,07,06,-1.10
2019,10,30,07,07,-1.10
2019,10,30,07,08,-1.10
2019,10,30,07,09,-1.10
2019,10,30,07,10,-1.00
2019,10,30,07,11,-1.00
2019,10,30,07,12,-1.00
2019,10,30,07,13,-1.00
2019,10,30,07,14,-1.00
2019,10,30,07,15,-1.00
2019,10,30,07,16,-1.00
2019,10,30,07,17,-1.00
2019,10,30,07,18,-1.00
2019,10,30,07,19,-1.10
2019,10,30,07,20,-1.10
2019,10,30,07,21,-1.10
2019,10,30,07,22,-1.10
2019,10,30,07,23,-1.10
2019,10,30,07,24,-1.10
2019,10,30,07,25,-1.10
2019,10,30,07,26,-1.10
2019,10,30,07,27,-1.10
2019,10,30,07,28,-1.10
2019,10,30,07,29,-1.10
2019,10,30,07,30,-1.20
2019,10,30,07,31,-1.20
2019,10,30,07,32,-1.20
2019,10,30,07,33,-1.20
2019,10,30,07,34,-1.20
2019,10,30,07,35,-1.20
2019,10,30,07,36,-1.20
2019,10,30,07,37,-1.20
2019,10,30,07,38,-1.20
2019,10,30,07,39,-1.20
2019,10,30,08,13,-0.80
2019,10,30,08,14,-0.80
2019,10,30,08,15,-0.70
2019,10,30,08,16,-0.70
2019,10,30,08,17,-0.70
2019,10,30,08,18,-0.60
2019,10,30,08,19,-0.60
2019,10,30,08,20,-0.50
2019,10,30,08,21,-0.50
2019,10,30,08,22,-0.40
2019,10,30,08,23,-0.40
2019,10,30,08,24,-0.30
2019,10,30,08,25,-0.30
2019,10,30,08,26,-0.30
2019,10,30,08,27,-0.20
2019,10,30,08,28,-0.20
2019,10,30,08,29,-0.20
2019,10,30,08,30,-0.20
2019,10,30,08,31,-0.20
2019,10,30,08,32,-0.10
2019,10,30,08,33,-0.10
2019,10,30,08,34,-0.10
2019,10,30,08,35,0.00
2019,10,30,08,36,0.00
2019,10,30,08,37,0.10
2019,10,30,08,38,0.20
2019,10,30,08,39,0.20
2019,10,30,08,40,0.30
2019,10,30,08,41,0.40
2019,10,30,08,42,0.50
2019,10,30,08,43,0.70
2019,10,30,08,44,0.80
2019,10,30,08,45,0.90
2019,10,30,08,46,1.10
2019,10,30,08,47,1.20
2019,10,30,08,48,1.40
2019,10,30,08,49,1.50
2019,10,30,08,50,1.70
2019,10,30,08,51,1.80
2019,10,30,08,52,1.90
2019,10,30,08,53,2.00
2019,10,30,08,54,2.10
2019,10,30,08,55,2.20
2019,10,30,08,56,2.20
2019,10,30,08,57,2.30
2019,10,30,08,58,2.30
2019,10,30,08,59,2.30
2019,10,30,09,00,2.40
2019,10,30,09,01,2.40
2019,10,30,09,02,2.50
2019,10,30,09,03,2.50
2019,10,30,09,04,2.60
2019,10,30,09,05,2.60
2019,10,30,09,06,2.70
2019,10,30,09,07,2.80
2019,10,30,09,08,2.90
2019,10,30,09,09,3.00
2019,10,30,09,10,3.10
2019,10,30,09,11,3.20
2019,10,30,09,12,3.30
2019,10,30,09,13,3.40
2019,10,30,09,14,3.50
2019,10,30,09,15,3.70
2019,10,30,09,16,3.80
2019,10,30,09,17,3.90
2019,10,30,09,18,4.10
2019,10,30,09,19,4.20
2019,10,30,09,20,4.30
2019,10,30,09,21,4.40
2019,10,30,09,22,4.50
2019,10,30,09,23,4.50
2019,10,30,09,24,4.60
2019,10,30,09,25,4.70
2019,10,30,09,26,4.80
2019,10,30,09,27,4.80
2019,10,30,09,28,4.90
2019,10,30,09,29,5.10
2019,10,30,09,30,5.20
2019,10,30,09,31,5.30
2019,10,30,09,32,5.40
2019,10,30,09,33,5.50
2019,10,30,09,34,5.70
2019,10,30,09,35,5.80
2019,10,30,09,36,5.90
2019,10,30,09,37,5.90
2019,10,30,09,38,6.00
2019,10,30,09,39,6.10
2019,10,30,09,40,6.20
2019,10,30,09,41,6.30
2019,10,30,09,42,6.40
2019,10,30,09,43,6.50
2019,10,30,09,44,6.60
2019,10,30,09,45,6.70
2019,10,30,09,46,6.70
2019,10,30,09,47,6.80
2019,10,30,09,48,6.80
2019,10,30,09,49,6.70
2019,10,30,09,50,6.70
2019,10,30,09,51,6.70
2019,10,30,09,52,6.60
2019,10,30,09,53,6.60
2019,10,30,09,54,6.60
2019,10,30,09,55,6.60
2019,10,30,09,56,6.60
2019,10,30,09,57,6.60
2019,10,30,09,58,6.70
2019,10,30,09,59,6.80
2019,10,30,10,00,6.90
2019,10,30,10,01,6.90
2019,10,30,10,02,7.00
2019,10,30,10,03,7.10
2019,10,30,10,04,7.10
2019,10,30,10,05,7.10
2019,10,30,10,06,7.10
2019,10,30,10,07,7.00
2019,10,30,10,08,7.00
2019,10,30,10,09,6.90
2019,10,30,10,10,6.90
2019,10,30,10,11,6.80
2019,10,30,10,12,6.80
2019,10,30,10,13,6.80
2019,10,30,10,14,6.80
2019,10,30,10,15,6.80
2019,10,30,10,16,6.80
2019,10,30,10,17,6.80
2019,10,30,10,18,6.70
2019,10,30,10,19,6.70
2019,10,30,10,20,6.70
2019,10,30,10,21,6.70
2019,10,30,10,22,6.70
2019,10,30,10,23,6.70
2019,10,30,10,24,6.70
2019,10,30,10,25,6.70
2019,10,30,10,26,6.70
2019,10,30,10,27,6.70
2019,10,30,10,28,6.70
2019,10,30,10,29,6.70
2019,10,30,10,30,6.70
2019,10,30,10,31,6.80
2019,10,30,10,32,6.90
2019,10,30,10,33,7.00
2019,10,30,10,34,7.10
2019,10,30,10,35,7.20
2019,10,30,10,36,7.20
2019,10,30,10,37,7.30
2019,10,30,10,38,7.40
2019,10,30,10,39,7.50
2019,10,30,10,40,7.50
2019,10,30,10,41,7.60
2019,10,30,10,42,7.60
2019,10,30,10,43,7.70
2019,10,30,10,44,7.70
2019,10,30,10,45,7.80
2019,10,30,10,46,7.90
2019,10,30,10,47,8.00
2019,10,30,10,48,8.20
2019,10,30,10,49,8.20
2019,10,30,10,50,8.30
2019,10,30,10,51,8.30
2019,10,30,10,52,8.40
2019,10,30,10,53,8.40
2019,10,30,10,54,8.40
2019,10,30,10,55,8.40
2019,10,30,10,56,8.30
2019,10,30,10,57,8.20
2019,10,30,10,58,8.10
2019,10,30,10,59,8.00
2019,10,30,11,00,7.90
2019,10,30,11,01,7.80
2019,10,30,11,02,7.70
2019,10,30,11,03,7.70
2019,10,30,11,04,7.60
2019,10,30,11,05,7.50
2019,10,30,11,06,7.50
2019,10,30,11,07,7.50
2019,10,30,11,08,7.60
2019,10,30,11,09,7.60
2019,10,30,11,10,7.70
2019,10,30,11,11,7.70
2019,10,30,11,12,7.70
2019,10,30,11,13,7.70
2019,10,30,11,14,7.70
2019,10,30,11,15,7.70
2019,10,30,11,16,7.70
2019,10,30,11,17,7.70
2019,10,30,11,18,7.60
2019,10,30,11,19,7.60
2019,10,30,11,20,7.60
2019,10,30,11,21,7.60
2019,10,30,11,22,7.60
2019,10,30,11,23,7.60
2019,10,30,11,24,7.60
2019,10,30,11,25,7.70
2019,10,30,11,26,7.70
2019,10,30,11,27,7.70
2019,10,30,11,28,7.70
2019,10,30,11,29,7.80
2019,10,30,11,30,7.80
2019,10,30,11,31,7.70
2019,10,30,11,32,7.70
2019,10,30,11,33,7.70
2019,10,30,11,34,7.70
2019,10,30,11,35,7.70
2019,10,30,11,36,7.70
2019,10,30,11,37,7.70
2019,10,30,11,38,7.70
2019,10,30,11,39,7.70
2019,10,30,11,40,7.70
2019,10,30,11,41,7.70
2019,10,30,11,42,7.70
2019,10,30,11,43,7.70
2019,10,30,11,44,7.70
2019,10,30,11,45,7.80
2019,10,30,11,46,7.80
2019,10,30,11,47,7.80
2019,10,30,11,48,7.80
2019,10,30,11,49,7.80
2019,10,30,11,50,7.80
2019,10,30,11,51,7.80
2019,10,30,11,52,7.80
2019,10,30,11,53,7.80
2019,10,30,11,54,7.80
2019,10,30,11,55,7.80
2019,10,30,11,56,7.80
2019,10,30,11,57,7.90
2019,10,30,11,58,7.90
2019,10,30,11,59,7.90
2019,10,30,12,00,7.90
2019,10,30,12,01,8.00
2019,10,30,12,02,8.00
2019,10,30,12,03,8.10
2019,10,30,12,04,8.10
2019,10,30,12,05,8.00
2019,10,30,12,06,8.00
2019,10,30,12,07,8.00
2019,10,30,12,08,8.00
2019,10,30,12,09,8.10
2019,10,30,12,10,8.10
2019,10,30,12,11,8.10
2019,10,30,12,12,8.10
2019,10,30,12,13,8.10
2019,10,30,12,14,8.10
2019,10,30,12,15,8.10
2019,10,30,12,16,8.20
2019,10,30,12,17,8.20
2019,10,30,12,18,8.20
2019,10,30,12,19,8.20
2019,10,30,12,20,8.30
2019,10,30,12,21,8.30
2019,10,30,12,22,8.30
2019,10,30,12,23,8.30
2019,10,30,12,24,8.30
2019,10,30,12,25,8.30
2019,10,30,12,26,8.30
2019,10,30,12,27,8.30
2019,10,30,12,28,8.30
2019,10,30,12,29,8.40
2019,10,30,12,30,8.40
2019,10,30,12,31,8.40
2019,10,30,12,32,8.40
2019,10,30,12,33,8.40
2019,10,30,12,34,8.40
2019,10,30,12,35,8.40
2019,10,30,12,36,8.40
2019,10,30,12,37,8.40
2019,10,30,12,38,8.40
2019,10,30,12,39,8.40
2019,10,30,12,40,8.40
2019,10,30,12,41,8.50
2019,10,30,12,42,8.60
2019,10,30,12,43,8.60
2019,10,30,12,44,8.60
2019,10,30,12,45,8.70
2019,10,30,12,46,8.70
2019,10,30,12,47,8.80
2019,10,30,12,48,8.80
2019,10,30,12,49,8.80
2019,10,30,12,50,8.80
2019,10,30,12,51,8.80
2019,10,30,12,52,8.80
2019,10,30,12,53,8.70
2019,10,30,12,54,8.70
2019,10,30,12,55,8.70
2019,10,30,12,56,8.70
2019,10,30,12,57,8.70
2019,10,30,12,58,8.70
2019,10,30,12,59,8.70
2019,10,30,13,00,8.70
2019,10,30,13,01,8.70
2019,10,30,13,02,8.80
2019,10,30,13,03,8.80
2019,10,30,13,04,8.90
2019,10,30,13,05,8.90
2019,10,30,13,06,9.00
2019,10,30,13,07,9.10
2019,10,30,13,08,9.20
2019,10,30,13,09,9.20
2019,10,30,13,10,9.20
2019,10,30,13,11,9.20
2019,10,30,13,12,9.20
2019,10,30,13,13,9.10
2019,10,30,13,14,9.10
2019,10,30,13,15,9.00
2019,10,30,13,16,9.00
2019,10,30,13,17,8.90
2019,10,30,13,18,8.90
2019,10,30,13,19,8.90
2019,10,30,13,20,8.90
2019,10,30,13,21,8.90
2019,10,30,13,22,8.80
2019,10,30,13,23,8.80
2019,10,30,13,24,8.80
2019,10,30,13,25,8.90
2019,10,30,13,26,8.90
2019,10,30,13,27,8.90
2019,10,30,13,28,9.00
2019,10,30,13,29,9.00
2019,10,30,13,30,9.10
2019,10,30,13,31,9.10
2019,10,30,13,32,9.10
2019,10,30,13,33,9.10
2019,10,30,13,34,9.10
2019,10,30,13,35,9.10
2019,10,30,13,36,9.00
2019,10,30,13,37,9.00
2019,10,30,13,38,9.00
2019,10,30,13,39,9.00
2019,10,30,13,40,9.00
2019,10,30,13,41,9.00
2019,10,30,13,42,9.00
2019,10,30,13,43,9.00
2019,10,30,13,44,9.00
2019,10,30,13,45,9.10
2019,10,30,13,46,9.20
2019,10,30,13,47,9.20
2019,10,30,13,48,9.30
2019,10,30,13,49,9.30
2019,10,30,13,50,9.30
2019,10,30,13,51,9.30
2019,10,30,13,52,9.30
2019,10,30,13,53,9.30
2019,10,30,13,54,9.30
2019,10,30,13,55,9.30
2019,10,30,13,56,9.30
2019,10,30,13,57,9.30
2019,10,30,13,58,9.30
2019,10,30,13,59,9.40
2019,10,30,14,00,9.40
2019,10,30,14,01,9.40
2019,10,30,14,02,9.40
2019,10,30,14,03,9.50
2019,10,30,14,04,9.50
2019,10,30,14,05,9.50
2019,10,30,14,06,9.50
2019,10,30,14,07,9.50
2019,10,30,14,08,9.50
2019,10,30,14,09,9.50
2019,10,30,14,10,9.40
2019,10,30,14,11,9.50
2019,10,30,14,12,9.50
2019,10,30,14,13,9.50
2019,10,30,14,14,9.60
2019,10,30,14,15,9.60
2019,10,30,14,16,9.70
2019,10,30,14,17,9.70
2019,10,30,14,18,9.80
2019,10,30,14,19,9.80
2019,10,30,14,20,9.80
2019,10,30,14,21,9.70
2019,10,30,14,22,9.70
2019,10,30,14,23,9.60
2019,10,30,14,24,9.60
2019,10,30,14,25,9.60
2019,10,30,14,26,9.60
2019,10,30,14,27,9.50
2019,10,30,14,28,9.50
2019,10,30,14,29,9.50
2019,10,30,14,30,9.50
2019,10,30,14,31,9.50
2019,10,30,14,32,9.60
2019,10,30,14,33,9.70
2019,10,30,14,34,9.70
2019,10,30,14,35,9.70
2019,10,30,14,36,9.70
2019,10,30,14,37,9.60
2019,10,30,14,38,9.60
2019,10,30,14,39,9.60
2019,10,30,14,40,9.50
2019,10,30,14,41,9.50
2019,10,30,14,42,9.40
2019,10,30,14,43,9.40
2019,10,30,14,44,9.30
2019,10,30,14,45,9.30
2019,10,30,14,46,9.30
2019,10,30,14,47,9.30
2019,10,30,14,48,9.30
2019,10,30,14,49,9.30
2019,10,30,14,50,9.40
2019,10,30,14,51,9.40
2019,10,30,14,52,9.40
2019,10,30,14,53,9.40
2019,10,30,14,54,9.50
2019,10,30,14,55,9.50
2019,10,30,14,56,9.50
2019,10,30,14,57,9.50
2019,10,30,14,58,9.60
2019,10,30,14,59,9.60
2019,10,30,15,00,9.60
2019,10,30,15,01,9.60
2019,10,30,15,02,9.70
2019,10,30,15,03,9.70
2019,10,30,15,04,9.70
2019,10,30,15,05,9.70
2019,10,30,15,06,9.70
2019,10,30,15,07,9.80
2019,10,30,15,08,9.80
2019,10,30,15,09,9.90
2019,10,30,15,10,9.90
2019,10,30,15,11,9.90
2019,10,30,15,12,9.90
2019,10,30,15,13,9.80
2019,10,30,15,14,9.80
2019,10,30,15,15,9.70
2019,10,30,15,16,9.70
2019,10,30,15,17,9.60
2019,10,30,15,18,9.60
2019,10,30,15,19,9.60
2019,10,30,15,20,9.50
2019,10,30,15,21,9.50
2019,10,30,15,22,9.40
2019,10,30,15,23,9.40
2019,10,30,15,24,9.40
2019,10,30,15,25,9.40
2019,10,30,15,26,9.40
2019,10,30,15,27,9.40
2019,10,30,15,28,9.40
2019,10,30,15,29,9.40
2019,10,30,15,30,9.30
2019,10,30,15,31,9.30
2019,10,30,15,32,9.30
2019,10,30,15,33,9.30
2019,10,30,15,34,9.30
2019,10,30,15,35,9.30
2019,10,30,15,36,9.20
2019,10,30,15,37,9.20
2019,10,30,15,38,9.20
2019,10,30,15,39,9.20
2019,10,30,15,40,9.20
2019,10,30,15,41,9.20
2019,10,30,15,42,9.30
2019,10,30,15,43,9.30
2019,10,30,15,44,9.30
2019,10,30,15,45,9.30
2019,10,30,15,46,9.30
2019,10,30,15,47,9.30
2019,10,30,15,48,9.30
2019,10,30,15,49,9.30
2019,10,30,15,50,9.30
2019,10,30,15,51,9.20
2019,10,30,15,52,9.20
2019,10,30,15,53,9.30
2019,10,30,15,54,9.30
2019,10,30,15,55,9.30
2019,10,30,15,56,9.30
2019,10,30,15,57,9.30
2019,10,30,15,58,9.30
2019,10,30,15,59,9.30
2019,10,30,16,00,9.30
2019,10,30,16,01,9.30
2019,10,30,16,02,9.40
2019,10,30,16,03,9.50
2019,10,30,16,04,9.50
2019,10,30,16,05,9.60
2019,10,30,16,06,9.60
2019,10,30,16,07,9.60
2019,10,30,16,08,9.50
2019,10,30,16,09,9.50
2019,10,30,16,10,9.40
2019,10,30,16,11,9.40
2019,10,30,16,12,9.40
2019,10,30,16,13,9.40
2019,10,30,16,14,9.40
2019,10,30,16,15,9.40
2019,10,30,16,16,9.40
2019,10,30,16,17,9.40
2019,10,30,16,18,9.50
2019,10,30,16,19,9.50
2019,10,30,16,20,9.50
2019,10,30,16,21,9.50
2019,10,30,16,22,9.50
2019,10,30,16,23,9.50
2019,10,30,16,24,9.50
2019,10,30,16,25,9.50
2019,10,30,16,26,9.50
2019,10,30,16,27,9.50
2019,10,30,16,28,9.50
2019,10,30,16,29,9.50
2019,10,30,16,30,9.50
2019,10,30,16,31,9.50
2019,10,30,16,32,9.40
2019,10,30,16,33,9.40
2019,10,30,16,34,9.40
2019,10,30,16,35,9.40
2019,10,30,16,36,9.40
2019,10,30,16,37,9.40
2019,10,30,16,38,9.40
2019,10,30,16,39,9.40
2019,10,30,16,40,9.40
2019,10,30,16,41,9.40
2019,10,30,16,42,9.40
2019,10,30,16,43,9.40
2019,10,30,16,44,9.40
2019,10,30,16,45,9.40
2019,10,30,16,46,9.50
2019,10,30,16,47,9.50
2019,10,30,16,48,9.50
2019,10,30,16,49,9.50
2019,10,30,16,50,9.50
2019,10,30,16,51,9.50
2019,10,30,16,52,9.50
2019,10,30,16,53,9.50
2019,10,30,16,54,9.60
2019,10,30,16,55,9.60
2019,10,30,16,56,9.60
2019,10,30,16,57,9.70
2019,10,30,16,58,9.70
2019,10,30,16,59,9.70
2019,10,30,17,00,9.70
2019,10,30,17,01,9.70
2019,10,30,17,02,9.70
2019,10,30,17,03,9.70
2019,10,30,17,04,9.70
2019,10,30,17,05,9.70
2019,10,30,17,06,9.70
2019,10,30,17,07,9.60
2019,10,30,17,08,9.60
2019,10,30,17,09,9.60
2019,10,30,17,10,9.50
2019,10,30,17,11,9.50
2019,10,30,17,12,9.40
2019,10,30,17,13,9.40
2019,10,30,17,14,9.30
2019,10,30,17,15,9.30
2019,10,30,17,16,9.30
2019,10,30,17,17,9.20
2019,10,30,17,18,9.20
2019,10,30,17,19,9.10
2019,10,30,17,20,9.10
2019,10,30,17,21,9.10
2019,10,30,17,22,9.00
2019,10,30,17,23,9.00
2019,10,30,17,24,8.90
2019,10,30,17,25,8.90
2019,10,30,17,26,8.80
2019,10,30,17,27,8.80
2019,10,30,17,28,8.80
2019,10,30,17,29,8.80
2019,10,30,17,30,8.80
2019,10,30,17,31,8.70
2019,10,30,17,32,8.70
2019,10,30,17,33,8.70
2019,10,30,17,34,8.70
2019,10,30,17,35,8.60
2019,10,30,17,36,8.60
2019,10,30,17,37,8.60
2019,10,30,17,38,8.60
2019,10,30,17,39,8.60
2019,10,30,17,40,8.50
2019,10,30,17,41,8.50
2019,10,30,17,42,8.50
2019,10,30,17,43,8.40
2019,10,30,17,44,8.40
2019,10,30,17,45,8.40
2019,10,30,17,46,8.40
2019,10,30,17,47,8.30
2019,10,30,17,48,8.30
2019,10,30,17,49,8.30
2019,10,30,17,50,8.20
2019,10,30,17,51,8.20
2019,10,30,17,52,8.20
2019,10,30,17,53,8.10
2019,10,30,17,54,8.10
2019,10,30,17,55,8.10
2019,10,30,17,56,8.00
2019,10,30,17,57,8.00
2019,10,30,17,58,7.90
2019,10,30,17,59,7.90
2019,10,30,18,00,7.80
2019,10,30,18,01,7.80
2019,10,30,18,02,7.80
2019,10,30,18,03,7.70
2019,10,30,18,04,7.70
2019,10,30,18,05,7.60
2019,10,30,18,06,7.60
2019,10,30,18,07,7.50
2019,10,30,18,08,7.50
2019,10,30,18,09,7.40
2019,10,30,18,10,7.40
2019,10,30,18,11,7.30
2019,10,30,18,12,7.30
2019,10,30,18,13,7.30
2019,10,30,18,14,7.20
2019,10,30,18,15,7.20
2019,10,30,18,16,7.20
2019,10,30,18,17,7.20